Time,TemperatureF,DewpointF,PressureIn,WindDirection,WindDirectionDegrees,WindSpeedMPH,WindSpeedGustMPH,Humidity,HourlyPrecipIn,Conditions,Clouds,dailyrainin,SolarRadiationWatts/m^2,SoftwareType,DateUTC
2013-07-04 00:00:00,63.0,63.0,-100.00,West,270,0.0,-999.0,101,-99.99,,,-99.99,0.000000,,2013-07-04 04:00:00,
2013-07-04 00:52:00,63.0,63.0,-100.00,West,270,0.0,-999.0,101,-99.99,,,-99.99,0.000000,,2013-07-04 04:52:00,
2013-07-04 01:00:00,61.0,61.0,-100.00,WSW,247,0.0,-999.0,102,-99.99,,,-99.99,0.000000,,2013-07-04 05:00:00,
2013-07-04 01:43:00,61.0,61.0,-100.00,WSW,247,0.0,-999.0,102,-99.99,,,-99.99,0.000000,,2013-07-04 05:43:00,
2013-07-04 01:52:00,61.0,61.0,-100.00,WSW,247,0.0,-999.0,102,-99.99,,,-99.99,0.000000,,2013-07-04 05:52:00,
2013-07-04 02:00:00,60.0,60.0,-100.00,WSW,247,0.0,-999.0,102,-99.99,,,-99.99,0.000000,,2013-07-04 06:00:00,
2013-07-04 02:43:00,60.0,60.0,-100.00,WSW,247,0.0,-999.0,102,-99.99,,,-99.99,0.000000,,2013-07-04 06:43:00,
2013-07-04 02:53:00,60.0,60.0,-100.00,WSW,247,0.0,-999.0,102,-99.99,,,-99.99,0.000000,,2013-07-04 06:53:00,
2013-07-04 03:00:00,59.0,59.0,-100.00,WSW,247,0.0,-999.0,102,-99.99,,,-99.99,0.000000,,2013-07-04 07:00:00,
2013-07-04 03:43:00,59.0,59.0,-100.00,WSW,247,0.0,-999.0,102,-99.99,,,-99.99,0.000000,,2013-07-04 07:43:00,
2013-07-04 03:52:00,59.0,59.0,-100.00,WSW,247,0.0,-999.0,102,-99.99,,,-99.99,0.000000,,2013-07-04 07:52:00,
2013-07-04 04:00:00,60.0,60.0,-100.00,South,180,1.0,-999.0,103,-99.99,,,-99.99,0.000000,,2013-07-04 08:00:00,
2013-07-04 04:43:00,60.0,60.0,-100.00,South,180,1.0,-999.0,103,-99.99,,,-99.99,0.000000,,2013-07-04 08:43:00,
2013-07-04 04:53:00,60.0,60.0,-100.00,South,180,1.0,-999.0,103,-99.99,,,-99.99,0.000000,,2013-07-04 08:53:00,
2013-07-04 06:00:00,59.0,59.0,-100.00,South,180,1.0,-999.0,103,-99.99,,,-99.99,0.000000,,2013-07-04 10:00:00,
2013-07-04 06:43:00,59.0,59.0,-100.00,South,180,1.0,-999.0,103,-99.99,,,-99.99,0.000000,,2013-07-04 10:43:00,
2013-07-04 06:53:00,59.0,59.0,-100.00,South,180,1.0,-999.0,103,-99.99,,,-99.99,0.000000,,2013-07-04 10:53:00,
2013-07-04 08:00:00,59.0,59.0,-100.00,South,180,0.0,-999.0,103,-99.99,,,-99.99,89.320000,,2013-07-04 12:00:00,
2013-07-04 08:43:00,59.0,59.0,-100.00,South,180,0.0,-999.0,103,-99.99,,,-99.99,89.320000,,2013-07-04 12:43:00,
2013-07-04 08:52:00,59.0,59.0,-100.00,South,180,0.0,-999.0,103,-99.99,,,-99.99,89.320000,,2013-07-04 12:52:00,
2013-07-04 09:00:00,65.0,65.0,-100.00,South,180,2.0,-999.0,102,-99.99,,,-99.99,323.640015,,2013-07-04 13:00:00,
2013-07-04 09:43:00,65.0,65.0,-100.00,South,180,2.0,-999.0,102,-99.99,,,-99.99,323.640015,,2013-07-04 13:43:00,
2013-07-04 09:53:00,65.0,65.0,-100.00,South,180,2.0,-999.0,102,-99.99,,,-99.99,323.640015,,2013-07-04 13:53:00,
2013-07-04 11:00:00,74.0,62.0,-100.00,SSW,202,2.0,-999.0,67,-99.99,,,-99.99,657.719971,,2013-07-04 15:00:00,
2013-07-04 11:43:00,74.0,62.0,-100.00,SSW,202,2.0,-999.0,67,-99.99,,,-99.99,657.719971,,2013-07-04 15:43:00,
2013-07-04 11:53:00,74.0,62.0,-100.00,SSW,202,2.0,-999.0,67,-99.99,,,-99.99,657.719971,,2013-07-04 15:53:00,
2013-07-04 13:00:00,77.0,61.0,-100.00,SSW,202,3.0,-999.0,58,-99.99,,,-99.99,796.919983,,2013-07-04 17:00:00,
2013-07-04 13:43:00,77.0,61.0,-100.00,SSW,202,3.0,-999.0,58,-99.99,,,-99.99,796.919983,,2013-07-04 17:43:00,
2013-07-04 13:53:00,77.0,61.0,-100.00,SSW,202,3.0,-999.0,58,-99.99,,,-99.99,796.919983,,2013-07-04 17:53:00,
2013-07-04 14:00:00,77.0,61.0,-100.00,SW,225,3.0,-999.0,57,-99.99,,,-99.99,621.760010,,2013-07-04 18:00:00,
2013-07-04 14:43:00,77.0,61.0,-100.00,SW,225,3.0,-999.0,57,-99.99,,,-99.99,621.760010,,2013-07-04 18:43:00,
2013-07-04 14:52:00,77.0,61.0,-100.00,SW,225,3.0,-999.0,57,-99.99,,,-99.99,621.760010,,2013-07-04 18:52:00,
2013-07-04 15:00:00,77.0,63.0,-100.00,SW,225,3.0,-999.0,61,-99.99,,,-99.99,484.880005,,2013-07-04 19:00:00,
2013-07-04 15:43:00,77.0,63.0,-100.00,SW,225,3.0,-999.0,61,-99.99,,,-99.99,484.880005,,2013-07-04 19:43:00,
2013-07-04 15:53:00,77.0,63.0,-100.00,SW,225,3.0,-999.0,61,-99.99,,,-99.99,484.880005,,2013-07-04 19:53:00,
2013-07-04 17:00:00,77.0,63.0,-100.00,South,180,5.0,-999.0,62,-99.99,,,-99.99,443.119995,,2013-07-04 21:00:00,
2013-07-04 17:43:00,77.0,63.0,-100.00,South,180,5.0,-999.0,62,-99.99,,,-99.99,443.119995,,2013-07-04 21:43:00,
2013-07-04 17:53:00,77.0,63.0,-100.00,South,180,5.0,-999.0,62,-99.99,,,-99.99,443.119995,,2013-07-04 21:53:00,
2013-07-04 18:00:00,76.0,63.0,-100.00,SSE,157,4.0,-999.0,64,-99.99,,,-99.99,324.799988,,2013-07-04 22:00:00,
2013-07-04 18:43:00,76.0,63.0,-100.00,SSE,157,4.0,-999.0,64,-99.99,,,-99.99,324.799988,,2013-07-04 22:43:00,
2013-07-04 18:52:00,76.0,63.0,-100.00,SSE,157,4.0,-999.0,64,-99.99,,,-99.99,324.799988,,2013-07-04 22:52:00,
2013-07-04 21:00:00,72.0,65.0,-100.00,SSE,157,2.0,-999.0,77,-99.99,,,-99.99,60.320000,,2013-07-05 01:00:00,
2013-07-04 21:32:00,72.0,65.0,-100.00,SSE,157,2.0,-999.0,77,-99.99,,,-99.99,60.320000,,2013-07-05 01:32:00,
2013-07-04 21:42:00,72.0,65.0,-100.00,SSE,157,2.0,-999.0,77,-99.99,,,-99.99,60.320000,,2013-07-05 01:42:00,
2013-07-04 21:52:00,72.0,65.0,-100.00,SSE,157,2.0,-999.0,77,-99.99,,,-99.99,60.320000,,2013-07-05 01:52:00,
2013-07-04 23:00:00,65.0,65.0,-100.00,SSE,157,0.0,-999.0,98,-99.99,,,-99.99,0.000000,,2013-07-05 03:00:00,
2013-07-04 23:33:00,65.0,65.0,-100.00,SSE,157,0.0,-999.0,98,-99.99,,,-99.99,0.000000,,2013-07-05 03:33:00,
2013-07-04 23:42:00,65.0,65.0,-100.00,SSE,157,0.0,-999.0,98,-99.99,,,-99.99,0.000000,,2013-07-05 03:42:00,
2013-07-04 23:52:00,65.0,65.0,-100.00,SSE,157,0.0,-999.0,98,-99.99,,,-99.99,0.000000,,2013-07-05 03:52:00,